Stanton, MN

12:07 PM CDT on March 23, 2017 (GMT -0500)
Stanton

Weather History for KSYN - April, 2014

Change the Weather History Date:

Friday, April 11, 2014

  Actual Average (KLVN) Record (KLVN)
Temperature  
Mean Temperature 49 °F -  
Max Temperature 64 °F 54 °F 85 °F (1968)
Min Temperature 34 °F 33 °F 18 °F (1957)
Degree Days  
Heating Degree Days 16    
Moisture  
Dew Point 33 °F    
Average Humidity 55    
Maximum Humidity 83    
Minimum Humidity 26    
Precipitation  
Precipitation 0.00 in - - ()
Sea Level Pressure  
Sea Level Pressure 29.93 in    
Wind  
Wind Speed 4 mph (WNW)    
Max Wind Speed 12 mph    
Max Gust Speed 22 mph    
Visibility 10 miles    
Events      
Averages and records for this station are not official NWS values.
T = Trace of Precipitation, MM = Missing Value Source: NWS Daily Summary

Daily Weather History Graph

Daily Weather History Graph

Search for Another Location

Airport or City:

Trip Planner

Search our weather history database for the weather conditions in past years. The results will help you decide how hot, cold, wet, or windy it might be!

Date:

Astronomy

Apr. 11, 2014 Rise Set
Actual Time 6:35 AM CDT 7:51 PM CDT
Civil Twilight 6:05 AM CDT 8:21 PM CDT
Nautical Twilight 5:28 AM CDT 8:58 PM CDT
Astronomical Twilight 4:50 AM CDT 9:36 PM CDT
Moon 4:25 PM CDT (4/11) 4:38 AM CDT (4/11)
Length of Visible Light 14h 16m
Length of Day
13h 16m
Waxing Gibbous, 87% of the Moon is Illuminated
Apr 11
Waxing Gibbous
Apr 15
Full
Apr 22
Last Quarter
Apr 29
New
May 6
First Quarter

Hourly Weather History & Observations

Time (CDT) Temp. Windchill Dew Point Humidity Pressure Visibility Wind Dir Wind Speed Gust Speed Precip Events Conditions
12:12 AM 38.3 °F 34.8 °F 29.1 °F 70% 29.93 in 10.0 mi South 4.6 mph - N/A   Clear
12:32 AM 36.3 °F 31.6 °F 29.7 °F 77% 29.94 in 10.0 mi South 5.8 mph - N/A   Clear
12:53 AM 37.4 °F 34.9 °F 29.7 °F 74% 29.94 in 10.0 mi South 3.5 mph - N/A   Clear
1:12 AM 35.2 °F 31.2 °F 28.9 °F 78% 29.93 in 10.0 mi SSW 4.6 mph - N/A   Clear
1:32 AM 35.6 °F 30.7 °F 29.3 °F 78% 29.93 in 10.0 mi SSW 5.8 mph - N/A   Clear
1:53 AM 35.6 °F - 29.3 °F 78% 29.93 in 10.0 mi Calm Calm - N/A   Mostly Cloudy
2:12 AM 34.7 °F 30.6 °F 29.5 °F 81% 29.93 in 10.0 mi SSW 4.6 mph - N/A   Mostly Cloudy
2:32 AM 34.7 °F - 30.0 °F 83% 29.92 in 10.0 mi Calm Calm - N/A   Mostly Cloudy
2:52 AM 34.9 °F - 30.2 °F 83% 29.93 in 10.0 mi Calm Calm - N/A   Overcast
3:12 AM 37.6 °F 35.1 °F 31.1 °F 77% 29.93 in 10.0 mi SSW 3.5 mph - N/A   Overcast
3:32 AM 36.5 °F 33.9 °F 30.9 °F 80% 29.93 in 10.0 mi South 3.5 mph - N/A   Overcast
3:52 AM 37.4 °F - 31.1 °F 78% 29.93 in 10.0 mi Calm Calm - N/A   Overcast
4:12 AM 38.7 °F 36.3 °F 31.6 °F 76% 29.92 in 10.0 mi South 3.5 mph - N/A   Overcast
4:32 AM 38.8 °F - 31.5 °F 75% 29.93 in 10.0 mi Calm Calm - N/A   Overcast
4:52 AM 38.1 °F - 31.5 °F 77% 29.93 in 10.0 mi Calm Calm - N/A   Overcast
5:12 AM 37.8 °F - 32.0 °F 80% 29.93 in 10.0 mi Calm Calm - N/A   Overcast
5:32 AM 37.8 °F - 32.0 °F 80% 29.93 in 10.0 mi Calm Calm - N/A   Overcast
5:52 AM 40.3 °F 38.2 °F 32.0 °F 72% 29.94 in 10.0 mi SSW 3.5 mph - N/A   Overcast
6:12 AM 38.5 °F 36.1 °F 32.0 °F 78% 29.95 in 10.0 mi WNW 3.5 mph - N/A   Overcast
6:32 AM 40.3 °F 38.2 °F 32.0 °F 72% 29.94 in 10.0 mi SSE 3.5 mph - N/A   Overcast
6:52 AM 40.8 °F - 31.8 °F 70% 29.95 in 10.0 mi Calm Calm - N/A   Overcast
7:12 AM 39.9 °F 36.7 °F 32.9 °F 76% 29.97 in 10.0 mi West 4.6 mph - N/A   Light Drizzle
7:52 AM 42.4 °F - 35.6 °F 77% 29.95 in 10.0 mi Calm Calm - N/A   Overcast
8:12 AM 42.6 °F 40.9 °F 35.6 °F 76% 29.94 in 10.0 mi South 3.5 mph - N/A   Overcast
8:33 AM 44.6 °F 40.7 °F 35.1 °F 69% 29.93 in 10.0 mi South 6.9 mph - N/A   Mostly Cloudy
8:52 AM 48.2 °F - 35.6 °F 62% 29.93 in 10.0 mi South 9.2 mph - N/A   Scattered Clouds
9:12 AM 51.1 °F - 35.4 °F 55% 29.91 in 10.0 mi South 5.8 mph - N/A   Clear
9:32 AM 53.8 °F - 36.5 °F 52% 29.92 in 10.0 mi SSW 4.6 mph - N/A   Clear
9:52 AM 55.6 °F - 35.8 °F 47% 29.92 in 10.0 mi West 4.6 mph - N/A   Clear
10:12 AM 56.1 °F - 37.0 °F 49% 29.93 in 10.0 mi NNE 6.9 mph - N/A   Clear
10:32 AM 55.0 °F - 37.0 °F 51% 29.93 in 10.0 mi NNE 8.1 mph - N/A   Clear
10:52 AM 56.1 °F - 36.3 °F 47% 29.93 in 10.0 mi North 6.9 mph - N/A   Clear
11:12 AM 56.1 °F - 36.1 °F 47% 29.93 in 10.0 mi North 5.8 mph - N/A   Clear
11:32 AM 56.7 °F - 34.9 °F 44% 29.93 in 10.0 mi North 4.6 mph - N/A   Clear
11:52 AM 57.6 °F - 34.0 °F 41% 29.93 in 10.0 mi Calm Calm - N/A   Clear
12:12 PM 58.5 °F - 34.3 °F 40% 29.94 in 10.0 mi NNW 6.9 mph - N/A   Clear
12:32 PM 59.5 °F - 34.0 °F 38% 29.94 in 10.0 mi NW 5.8 mph - N/A   Clear
12:52 PM 59.9 °F - 33.1 °F 36% 29.94 in 10.0 mi NW 6.9 mph - N/A   Clear
1:12 PM 61.0 °F - 34.0 °F 36% 29.94 in 10.0 mi NNW 11.5 mph 21.9 mph N/A   Clear
1:32 PM 61.2 °F - 32.5 °F 34% 29.95 in 10.0 mi WNW 9.2 mph - N/A   Clear
1:52 PM 62.1 °F - 32.2 °F 33% 29.94 in 10.0 mi NW 4.6 mph - N/A   Clear
2:12 PM 61.0 °F - 32.0 °F 34% 29.94 in 10.0 mi North 9.2 mph - N/A   Clear
2:32 PM 63.0 °F - 31.3 °F 30% 29.94 in 10.0 mi NW 11.5 mph - N/A   Clear
2:52 PM 63.1 °F - 30.2 °F 29% 29.93 in 10.0 mi North 4.6 mph 10.4 mph N/A   Clear
3:12 PM 63.5 °F - 30.7 °F 29% 29.93 in 10.0 mi NNW 11.5 mph - N/A   Clear
3:32 PM 63.7 °F - 30.9 °F 29% 29.93 in 10.0 mi WNW 8.1 mph - N/A   Clear
3:52 PM 63.7 °F - 29.1 °F 27% 29.92 in 10.0 mi NW 11.5 mph 16.1 mph N/A   Clear
4:12 PM 62.6 °F - 28.9 °F 28% 29.92 in 10.0 mi Calm Calm - N/A   Clear
4:32 PM 64.2 °F - 28.6 °F 26% 29.91 in 10.0 mi Calm Calm - N/A   Clear
4:53 PM 63.7 °F - 28.2 °F 26% 29.91 in 10.0 mi NW 5.8 mph - N/A   Clear
5:12 PM 63.7 °F - 28.2 °F 26% 29.90 in 10.0 mi NNW 8.1 mph - N/A   Clear
5:32 PM 63.1 °F - 27.7 °F 26% 29.91 in 10.0 mi WNW 4.6 mph - N/A   Clear
5:52 PM 63.3 °F - 28.2 °F 27% 29.91 in 10.0 mi WNW 6.9 mph - N/A   Clear
6:12 PM 62.1 °F - 29.7 °F 29% 29.90 in 10.0 mi NNW 8.1 mph - N/A   Clear
6:32 PM 60.6 °F - 32.2 °F 34% 29.91 in 10.0 mi NNW 6.9 mph - N/A   Clear
6:52 PM 58.6 °F - 37.0 °F 45% 29.90 in 10.0 mi NW 5.8 mph - N/A   Clear
7:12 PM 58.1 °F - 36.7 °F 45% 29.90 in 10.0 mi NW 4.6 mph - N/A   Clear
7:32 PM 57.0 °F - 37.6 °F 48% 29.90 in 10.0 mi North 5.8 mph - N/A   Clear
7:52 PM 54.7 °F - 39.6 °F 57% 29.90 in 10.0 mi NNE 3.5 mph - N/A   Clear
8:12 PM 53.2 °F - 36.9 °F 54% 29.90 in 10.0 mi East 3.5 mph - N/A   Clear
8:32 PM 52.9 °F - 36.3 °F 53% 29.91 in 10.0 mi Calm Calm - N/A   Clear
8:52 PM 52.7 °F - 36.9 °F 55% 29.92 in 10.0 mi Calm Calm - N/A   Clear
9:12 PM 51.8 °F - 38.1 °F 60% 29.93 in 10.0 mi Calm Calm - N/A   Clear
9:32 PM 50.0 °F - 39.7 °F 68% 29.93 in 10.0 mi Calm Calm - N/A   Clear
9:52 PM 49.3 °F - 39.9 °F 70% 29.94 in 10.0 mi Calm Calm - N/A   Clear
10:12 PM 49.3 °F - 40.8 °F 73% 29.93 in 10.0 mi Calm Calm - N/A   Clear
10:32 PM 48.6 °F - 38.8 °F 69% 29.93 in 10.0 mi Calm Calm - N/A   Clear
10:52 PM 50.4 °F - 36.0 °F 58% 29.92 in 10.0 mi East 4.6 mph - N/A   Clear
11:12 PM 53.8 °F - 31.8 °F 43% 29.91 in 10.0 mi ESE 4.6 mph - N/A   Scattered Clouds
11:32 PM 54.5 °F - 31.3 °F 41% 29.91 in 10.0 mi SE 4.6 mph - N/A   Overcast
11:52 PM 54.5 °F - 31.5 °F 42% 29.93 in 10.0 mi SE 5.8 mph - N/A   Overcast